Location: Windsor
(43.2292°N, 89.3015°W)
Time: 10:45:54
(UTC+00:00)

Tiros 1 - Pass Details

Date: 31 May 2022
Orbit: 629 x 663 km, 48.4° (Epoch: 04 July)

Event Time Altitude Azimuth Distance (km) Brightness Sun altitude
Exits shadow 04:32:33 22° 83° (E) 1,385 8.7 -22.2°
Drops below altitude 10° 04:34:20 10° 72° (ENE) 2,011 9.6 -22.3°
Sets 04:36:44 0° 67° (ENE) 2,925 10.6 -22.4°
